FW7786 Weather Reports


Display with metric or nautical units.
time (UTC)temp
F
wind
direction
speed
MPH
gust
MPH
rain 1hr
in
rain 24hr
in
rain mn
in
humidity
%
barometer
mb
20260510104557 53 0 0.0 0.0 0.00 0.00 0.00 93 1011.8
20260510103052 53 0 0.0 0.0 0.00 0.00 0.00 92 1011.6
20260510101551 53 0 0.0 0.0 0.00 0.00 0.00 92 1011.5
20260510100054 53 0 0.0 0.0 0.00 0.00 0.00 92 1011.4
20260510094555 53 0 0.0 0.0 0.00 0.00 0.00 92 1011.3
20260510093055 54 0 0.0 0.0 0.00 0.00 0.00 91 1011.2
20260510091551 54 0 0.0 0.0 0.00 0.00 0.00 91 1011.0
20260510090051 55 0 0.0 0.0 0.00 0.00 0.00 91 1010.8
20260510084552 55 0 0.0 0.0 0.00 0.00 0.00 90 1010.8
20260510083100 56 0 0.0 0.0 0.00 0.00 0.00 90 1010.8
20260510081602 57 0 0.0 0.0 0.00 0.00 0.00 90 1010.8
20260510080050 57 0 0.0 2.0 0.00 0.00 0.00 90 1010.7
20260510074553 57 0 0.0 0.0 0.00 0.00 0.00 90 1010.6
20260510073100 57 0 0.0 0.0 0.00 0.00 0.00 90 1010.3
20260510071557 57 0 0.0 0.0 0.00 0.00 0.00 88 1010.3
20260510070055 58 0 0.0 0.0 0.00 0.00 0.00 88 1010.0
20260510064557 58 0 0.0 0.0 0.00 0.00 0.00 87 1010.0
20260510063056 59 0 0.0 0.0 0.00 0.00 0.00 87 1010.0
20260510061550 59 0 0.0 0.0 0.00 0.00 0.00 87 1010.0
20260510060049 59 0 0.0 0.0 0.00 0.00 0.00 85 1010.1
20260510054557 60 0 0.0 0.0 0.00 0.00 0.00 85 1010.0
20260510053053 60 0 0.0 0.0 0.00 0.00 0.00 84 1010.0
20260510051554 60 0 0.0 0.0 0.00 0.00 0.00 84 1010.0
20260510050056 60 0 0.0 2.0 0.00 0.00 0.00 84 1010.0
20260510044549 60 0 0.0 0.0 0.00 0.00 0.00 81 1010.1
20260510043051 62 0 0.0 0.0 0.00 0.00 0.00 78 1010.0
20260510041552 62 0 0.0 0.0 0.00 0.00 0.00 77 1009.9
20260510040053 63 0 0.0 0.0 0.00 0.00 0.00 75 1009.9
20260510034551 63 0 0.0 1.0 0.00 0.00 0.00 75 1010.0
20260510033110 63 0 0.0 0.0 0.00 0.00 0.00 76 1009.8
20260510031551 62 0 0.0 0.0 0.00 0.00 0.00 76 1009.6
20260510030056 62 0 0.0 0.0 0.00 0.00 0.00 75 1009.4
20260510024557 62 0 0.0 0.0 0.00 0.00 0.00 74 1009.2
20260510023055 62 0 0.0 0.0 0.00 0.00 0.00 74 1009.2
20260510021550 62 0 0.0 0.0 0.00 0.00 0.00 73 1009.2
20260510020056 62 0 0.0 0.0 0.00 0.00 0.00 73 1009.0
20260510014554 62 0 0.0 0.0 0.00 0.00 0.00 73 1008.9
20260510013049 63 0 0.0 0.0 0.00 0.00 0.00 72 1008.6
20260510011552 63 0 0.0 0.0 0.00 0.00 0.00 71 1008.3
20260510010054 64 0 0.0 0.0 0.00 0.00 0.00 70 1008.2
20260510004553 65 0 0.0 0.0 0.00 0.00 0.00 68 1008.1
20260510003101 66 0 0.0 0.0 0.00 0.00 0.00 66 1007.9
20260510001550 67 0 0.0 0.0 0.00 0.00 0.00 63 1007.8
20260510000055 69 0 0.0 0.0 0.00 0.00 0.00 60 1007.8
20260509234604 71 0 0.0 0.0 0.00 0.00 0.00 56 1007.6
20260509233053 72 0 0.0 6.0 0.00 0.00 0.00 53 1007.5
20260509231601 73 219 0.0 3.0 0.00 0.00 0.00 52 1007.5
20260509230103 73 0 0.0 0.0 0.00 0.00 0.00 53 1007.4
20260509224601 73 0 0.0 0.0 0.00 0.00 0.00 51 1007.3
20260509223102 74 0 0.0 0.0 0.00 0.00 0.00 50 1007.4
20260509221555 74 0 0.0 3.0 0.00 0.00 0.00 49 1007.4
20260509220054 75 0 0.0 1.0 0.00 0.00 0.00 48 1007.4
20260509214553 75 0 0.0 3.0 0.00 0.00 0.00 48 1007.4
20260509213058 76 0 0.0 1.0 0.00 0.00 0.00 47 1007.5
20260509211553 76 0 0.0 8.0 0.00 0.00 0.00 44 1007.2
20260509210100 76 0 0.0 7.0 0.00 0.00 0.00 47 1007.3
20260509204601 76 0 0.0 2.0 0.00 0.00 0.00 47 1007.2
20260509203100 75 0 0.0 2.0 0.00 0.00 0.00 50 1007.3
20260509201553 74 0 0.0 0.0 0.00 0.00 0.00 50 1007.2
20260509200053 75 0 0.0 5.0 0.00 0.00 0.00 50 1007.5
20260509194551 75 0 0.0 2.0 0.00 0.00 0.00 52 1007.8
20260509193054 73 234 0.0 1.0 0.00 0.00 0.00 56 1007.9
20260509191557 74 0 0.0 0.0 0.00 0.00 0.00 54 1008.4
20260509190055 71 0 0.0 3.0 0.00 0.00 0.00 62 1008.5
20260509184550 69 0 0.0 0.0 0.00 0.00 0.00 63 1008.8
20260509183052 70 0 0.0 1.0 0.00 0.00 0.00 62 1008.9
20260509181608 69 0 0.0 0.0 0.00 0.00 0.00 61 1009.0
20260509180112 70 0 0.0 8.0 0.00 0.00 0.00 58 1009.0
20260509174555 71 0 0.0 10.0 0.00 0.00 0.00 58 1009.1
20260509173106 71 0 0.0 6.0 0.00 0.00 0.00 56 1009.2
20260509171554 71 0 0.0 1.0 0.00 0.00 0.00 57 1009.4
20260509170055 71 0 0.0 7.0 0.00 0.00 0.00 59 1009.7
20260509163059 68 0 0.0 1.0 0.00 0.00 0.00 61 1009.8
20260509161602 68 0 0.0 3.0 0.00 0.00 0.00 61 1009.9
20260509160059 68 0 0.0 9.0 0.00 0.00 0.00 60 1009.9
20260509154614 68 0 0.0 0.0 0.00 0.00 0.00 60 1010.1
20260509153107 68 0 0.0 15.0 0.00 0.00 0.00 59 1010.2
20260509151604 68 0 0.0 5.0 0.00 0.00 0.00 62 1010.3
20260509150053 66 0 1.0 8.0 0.00 0.00 0.00 64 1010.0
20260509144556 65 0 0.0 1.0 0.00 0.00 0.00 66 1010.3
20260509143110 65 0 0.0 6.0 0.00 0.00 0.00 67 1010.5
20260509141556 63 0 0.0 10.0 0.00 0.00 0.00 69 1010.7
20260509140054 62 0 0.0 0.0 0.00 0.00 0.00 68 1010.9
20260509134557 62 0 0.0 0.0 0.00 0.00 0.00 71 1011.1
20260509133107 60 0 0.0 2.0 0.00 0.00 0.00 72 1011.2
20260509131557 60 0 0.0 2.0 0.00 0.00 0.00 73 1011.4
20260509130114 59 0 0.0 1.0 0.00 0.00 0.00 74 1011.4
20260509124553 58 0 0.0 1.0 0.00 0.00 0.00 76 1011.3
20260509123056 57 0 0.0 1.0 0.00 0.00 0.00 78 1011.4
20260509121554 56 0 0.0 0.0 0.00 0.00 0.00 80 1011.3
20260509120101 55 0 0.0 9.0 0.00 0.00 0.00 81 1011.3
20260509114558 54 0 0.0 1.0 0.00 0.00 0.00 82 1011.3
20260509113102 53 0 0.0 2.0 0.00 0.00 0.00 82 1011.3
20260509111554 52 0 0.0 1.0 0.00 0.00 0.00 82 1011.3
20260509110052 51 0 0.0 1.0 0.00 0.00 0.00 82 1011.3